UPS237 EGNX-EDDK

Flight info

Callsign UPS237
Flight time 1h 7m
Altitude 34000
Route SAPCO Y53 DTY DCT SILVA UM605 BENSU Q70 BIG UL9 KONAN UL607 SPI T857 DENOV T861 ERUKI T856 DEPOK
Aircraft A306/H-SDE3FGHIRWY/LB1

Departure

Time 2026-04-24 20:47
Airport East Midlands Airport (EGNX)

Arrival

Time 2026-04-24 21:55
Airport Cologne Bonn Airport (EDDK)
Time Latitude Longitude Altitude Speed Heading
2026-04-24 20:16 52.82739 -1.35113 308 ft 0 kts 178°
2026-04-24 20:38 52.82741 -1.35113 306 ft 1 kts 178°
2026-04-24 20:39 52.82759 -1.35115 307 ft 3 kts 173°
2026-04-24 20:39 52.82779 -1.35120 306 ft 3 kts 166°
2026-04-24 20:39 52.82798 -1.35129 307 ft 3 kts 155°
2026-04-24 20:39 52.82814 -1.35146 307 ft 3 kts 128°
2026-04-24 20:40 52.82821 -1.35166 307 ft 1 kts 90°
2026-04-24 20:40 52.82821 -1.35168 307 ft 1 kts 88°
2026-04-24 20:42 52.82822 -1.35121 305 ft 7 kts 88°
2026-04-24 20:43 52.82823 -1.35048 309 ft 6 kts 88°
2026-04-24 20:43 52.82825 -1.34944 309 ft 10 kts 88°
2026-04-24 20:43 52.82827 -1.34831 306 ft 9 kts 88°
2026-04-24 20:43 52.82829 -1.34726 306 ft 9 kts 88°
2026-04-24 20:44 52.82831 -1.34619 307 ft 10 kts 88°
2026-04-24 20:44 52.82833 -1.34506 310 ft 11 kts 88°
2026-04-24 20:44 52.82870 -1.34425 312 ft 7 kts
2026-04-24 20:44 52.82902 -1.34488 310 ft 13 kts 280°
2026-04-24 20:45 52.82904 -1.34635 312 ft 12 kts 268°
2026-04-24 20:45 52.82901 -1.34760 311 ft 12 kts 268°
2026-04-24 20:45 52.82903 -1.34883 313 ft 9 kts 288°
2026-04-24 20:45 52.82963 -1.34933 311 ft 10 kts 356°
2026-04-24 20:46 52.83034 -1.34937 311 ft 9 kts
2026-04-24 20:46 52.83062 -1.34863 311 ft 8 kts 87°
2026-04-24 20:46 52.83064 -1.34754 310 ft 17 kts 89°
2026-04-24 20:46 52.83073 -1.34165 312 ft 86 kts 89°
2026-04-24 20:47 52.83096 -1.32844 309 ft 143 kts 88°
2026-04-24 20:47 52.83117 -1.31054 775 ft 157 kts 90°
2026-04-24 20:47 52.83100 -1.29212 1518 ft 165 kts 92°
2026-04-24 20:47 52.83047 -1.27162 1888 ft 190 kts 94°
2026-04-24 20:48 52.82930 -1.24832 2265 ft 217 kts 99°
2026-04-24 20:48 52.82323 -1.22361 2535 ft 248 kts 127°
2026-04-24 20:48 52.81147 -1.20262 3431 ft 251 kts 135°
2026-04-24 20:48 52.79883 -1.18213 4239 ft 258 kts 137°
2026-04-24 20:49 52.78399 -1.16506 5089 ft 264 kts 154°
2026-04-24 20:49 52.76612 -1.15729 5939 ft 270 kts 176°
2026-04-24 20:49 52.74756 -1.16196 6807 ft 274 kts 202°
2026-04-24 20:49 52.73135 -1.17848 7654 ft 276 kts 218°
2026-04-24 20:50 52.71619 -1.19843 8523 ft 281 kts 220°
2026-04-24 20:50 52.70095 -1.21888 9388 ft 285 kts 220°
2026-04-24 20:50 52.68537 -1.23959 10243 ft 289 kts 219°
2026-04-24 20:50 52.66931 -1.26075 10747 ft 305 kts 219°
2026-04-24 20:51 52.65217 -1.28317 11061 ft 324 kts 219°
2026-04-24 20:51 52.63397 -1.30687 11352 ft 342 kts 219°
2026-04-24 20:51 52.61424 -1.33057 11631 ft 359 kts 212°
2026-04-24 20:51 52.59102 -1.34610 11972 ft 372 kts 193°
2026-04-24 20:52 52.56522 -1.35265 12518 ft 378 kts 186°
2026-04-24 20:52 52.53877 -1.35176 13120 ft 383 kts 171°
2026-04-24 20:52 52.51293 -1.34054 13794 ft 385 kts 162°
2026-04-24 20:52 52.48779 -1.32523 14420 ft 387 kts 158°
2026-04-24 20:53 52.46288 -1.30796 14988 ft 390 kts 156°
2026-04-24 20:53 52.43804 -1.29000 15564 ft 392 kts 155°
2026-04-24 20:53 52.41294 -1.27187 16151 ft 396 kts 156°
2026-04-24 20:53 52.38758 -1.25390 16707 ft 399 kts 156°
2026-04-24 20:54 52.36190 -1.23608 17276 ft 402 kts 156°
2026-04-24 20:54 52.33602 -1.21840 17832 ft 405 kts 157°
2026-04-24 20:54 52.30989 -1.20074 18401 ft 408 kts 157°
2026-04-24 20:54 52.28361 -1.18309 18864 ft 411 kts 157°
2026-04-24 20:55 52.25697 -1.16524 19229 ft 416 kts 158°
2026-04-24 20:55 52.22993 -1.14714 19596 ft 421 kts 158°
2026-04-24 20:55 52.20267 -1.12901 19998 ft 425 kts 159°
2026-04-24 20:55 52.17447 -1.11412 20388 ft 428 kts 166°
2026-04-24 20:56 52.14548 -1.10241 20774 ft 431 kts 168°
2026-04-24 20:56 52.11605 -1.09193 21171 ft 434 kts 170°
2026-04-24 20:56 52.08631 -1.08212 21548 ft 438 kts 171°
2026-04-24 20:56 52.05632 -1.07257 21939 ft 441 kts 172°
2026-04-24 20:57 52.02612 -1.06303 22313 ft 444 kts 172°
2026-04-24 20:57 51.99617 -1.05352 22714 ft 446 kts 172°
2026-04-24 20:57 51.96554 -1.04372 23085 ft 449 kts 172°
2026-04-24 20:57 51.93481 -1.03380 23447 ft 452 kts 172°
2026-04-24 20:58 51.90385 -1.02378 23796 ft 455 kts 172°
2026-04-24 20:58 51.87271 -1.01368 24085 ft 458 kts 172°
2026-04-24 20:58 51.84131 -1.00349 24392 ft 460 kts 172°
2026-04-24 20:58 51.80986 -0.99330 24699 ft 462 kts 172°
2026-04-24 20:59 51.77828 -0.98309 24982 ft 464 kts 172°
2026-04-24 20:59 51.74656 -0.97286 25297 ft 465 kts 172°
2026-04-24 20:59 51.71476 -0.96261 25583 ft 467 kts 172°
2026-04-24 20:59 51.68286 -0.95220 25846 ft 470 kts 171°
2026-04-24 21:00 51.65164 -0.93763 26106 ft 476 kts 163°
2026-04-24 21:00 51.62138 -0.91550 26363 ft 482 kts 154°
2026-04-24 21:00 51.59351 -0.88511 26629 ft 488 kts 143°
2026-04-24 21:00 51.56926 -0.84667 26878 ft 493 kts 132°
2026-04-24 21:01 51.54976 -0.80126 27176 ft 496 kts 120°
2026-04-24 21:01 51.53464 -0.75139 27460 ft 497 kts 115°
2026-04-24 21:01 51.52101 -0.70021 27682 ft 500 kts 113°
2026-04-24 21:01 51.50800 -0.64836 27905 ft 501 kts 112°
2026-04-24 21:02 51.49512 -0.59623 28126 ft 503 kts 112°
2026-04-24 21:02 51.48210 -0.54392 28357 ft 504 kts 112°
2026-04-24 21:02 51.46893 -0.49178 28675 ft 503 kts 113°
2026-04-24 21:02 51.45568 -0.44004 29020 ft 502 kts 113°
2026-04-24 21:03 51.44230 -0.38834 29341 ft 501 kts 113°
2026-04-24 21:03 51.42884 -0.33671 29666 ft 500 kts 113°
2026-04-24 21:03 51.41541 -0.28542 29986 ft 500 kts 114°
2026-04-24 21:03 51.40193 -0.23409 30307 ft 499 kts 114°
2026-04-24 21:04 51.38866 -0.18368 30576 ft 498 kts 114°
2026-04-24 21:04 51.37519 -0.13257 30843 ft 498 kts 114°
2026-04-24 21:04 51.36173 -0.08163 31108 ft 497 kts 114°
2026-04-24 21:04 51.34824 -0.03063 31397 ft 497 kts 114°
2026-04-24 21:05 51.33546 0.02065 31640 ft 497 kts 109°
2026-04-24 21:05 51.32665 0.07423 31880 ft 497 kts 103°
2026-04-24 21:05 51.31926 0.12815 32213 ft 495 kts 102°
2026-04-24 21:05 51.31244 0.18199 32489 ft 495 kts 101°
2026-04-24 21:06 51.30587 0.23604 32750 ft 495 kts 101°
2026-04-24 21:06 51.29939 0.29000 33027 ft 494 kts 101°
2026-04-24 21:06 51.29290 0.34388 33300 ft 494 kts 101°
2026-04-24 21:06 51.28635 0.39772 33584 ft 493 kts 101°
2026-04-24 21:07 51.27974 0.45148 33827 ft 493 kts 102°
2026-04-24 21:07 51.27308 0.50511 34103 ft 492 kts 101°
2026-04-24 21:07 51.26636 0.55881 34276 ft 492 kts 101°
2026-04-24 21:07 51.25967 0.61191 34281 ft 484 kts 102°
2026-04-24 21:08 51.24866 0.69851 34281 ft 477 kts 102°
2026-04-24 21:08 51.23326 0.81887 34274 ft 476 kts 102°
2026-04-24 21:09 51.22218 0.90495 34267 ft 476 kts 102°
2026-04-24 21:09 51.20880 1.00837 34264 ft 476 kts 102°
2026-04-24 21:10 51.19531 1.11179 34265 ft 477 kts 102°
2026-04-24 21:10 51.18172 1.21521 34265 ft 477 kts 102°
2026-04-24 21:11 51.16804 1.31860 34263 ft 477 kts 102°
2026-04-24 21:11 51.15965 1.42327 34262 ft 476 kts 95°
2026-04-24 21:12 51.15425 1.52849 34257 ft 477 kts 94°
2026-04-24 21:12 51.14928 1.63397 34259 ft 477 kts 94°
2026-04-24 21:13 51.14421 1.73866 34254 ft 477 kts 94°
2026-04-24 21:13 51.13891 1.84397 34256 ft 477 kts 94°
2026-04-24 21:14 51.13347 1.94931 34262 ft 477 kts 94°
2026-04-24 21:14 51.12794 2.05468 34262 ft 477 kts 94°
2026-04-24 21:15 51.12231 2.15991 34259 ft 477 kts 95°
2026-04-24 21:15 51.11659 2.26513 34257 ft 477 kts 95°
2026-04-24 21:16 51.11078 2.37035 34256 ft 477 kts 95°
2026-04-24 21:16 51.10488 2.47548 34250 ft 477 kts 95°
2026-04-24 21:17 51.09888 2.58062 34249 ft 477 kts 95°
2026-04-24 21:17 51.08822 2.68473 34250 ft 477 kts 104°
2026-04-24 21:18 51.07088 2.78651 34247 ft 477 kts 107°
2026-04-24 21:18 51.05235 2.88763 34240 ft 477 kts 107°
2026-04-24 21:19 51.03364 2.98871 34240 ft 476 kts 107°
2026-04-24 21:19 51.01499 3.08971 34240 ft 476 kts 107°
2026-04-24 21:20 50.98697 3.24115 34239 ft 476 kts 107°
2026-04-24 21:21 50.96833 3.34128 34236 ft 476 kts 107°
2026-04-24 21:21 50.94951 3.44179 34232 ft 475 kts 107°
2026-04-24 21:22 50.93062 3.54212 34233 ft 475 kts 108°
2026-04-24 21:22 50.91165 3.64231 34230 ft 475 kts 108°
2026-04-24 21:23 50.89244 3.74241 34233 ft 475 kts 108°
2026-04-24 21:23 50.87308 3.84239 34232 ft 475 kts 108°
2026-04-24 21:24 50.85367 3.94222 34229 ft 475 kts 108°
2026-04-24 21:24 50.83434 4.04114 34234 ft 475 kts 108°
2026-04-24 21:25 50.81456 4.14191 34237 ft 475 kts 108°
2026-04-24 21:25 50.79487 4.24167 34233 ft 474 kts 108°
2026-04-24 21:26 50.77535 4.34006 34239 ft 471 kts 108°
2026-04-24 21:26 50.75556 4.43930 34236 ft 470 kts 109°
2026-04-24 21:27 50.73595 4.53713 34236 ft 470 kts 109°
2026-04-24 21:27 50.71628 4.63560 34234 ft 470 kts 108°
2026-04-24 21:28 50.69714 4.73419 34222 ft 470 kts 108°
2026-04-24 21:28 50.67805 4.83285 34222 ft 470 kts 108°
2026-04-24 21:29 50.65881 4.93120 34216 ft 470 kts 109°
2026-04-24 21:29 50.63885 5.02924 34215 ft 470 kts 109°
2026-04-24 21:30 50.61861 5.12699 34219 ft 470 kts 109°
2026-04-24 21:30 50.59832 5.22470 34214 ft 469 kts 109°
2026-04-24 21:31 50.57818 5.32147 34216 ft 468 kts 110°
2026-04-24 21:31 50.55783 5.41885 34208 ft 468 kts 110°
2026-04-24 21:32 50.53731 5.51654 34212 ft 474 kts 110°
2026-04-24 21:32 50.52499 5.61914 34211 ft 482 kts 91°
2026-04-24 21:32 50.52742 5.67168 34210 ft 483 kts 80°
2026-04-24 21:33 50.53538 5.72291 34136 ft 483 kts 73°
2026-04-24 21:33 50.54170 5.75650 33916 ft 483 kts 72°
2026-04-24 21:33 50.55563 5.82372 33197 ft 484 kts 71°
2026-04-24 21:33 50.56651 5.87387 32676 ft 485 kts 70°
2026-04-24 21:34 50.57745 5.92417 32162 ft 486 kts 70°
2026-04-24 21:34 50.58833 5.97470 31646 ft 488 kts 71°
2026-04-24 21:34 50.59910 6.02546 31142 ft 490 kts 71°
2026-04-24 21:34 50.60976 6.07632 30677 ft 491 kts 71°
2026-04-24 21:35 50.62028 6.12697 30182 ft 495 kts 71°
2026-04-24 21:35 50.63006 6.17903 29617 ft 498 kts 78°
2026-04-24 21:35 50.63380 6.23324 29068 ft 499 kts 90°
2026-04-24 21:35 50.63305 6.28783 28537 ft 499 kts 93°
2026-04-24 21:36 50.63107 6.34241 28017 ft 500 kts 95°
2026-04-24 21:36 50.62832 6.39707 27482 ft 501 kts 96°
2026-04-24 21:36 50.62522 6.45175 26973 ft 502 kts 96°
2026-04-24 21:36 50.62203 6.50660 26474 ft 503 kts 96°
2026-04-24 21:37 50.61888 6.56164 25980 ft 505 kts 96°
2026-04-24 21:37 50.61578 6.61673 25499 ft 506 kts 96°
2026-04-24 21:37 50.61305 6.67191 25039 ft 505 kts 93°
2026-04-24 21:37 50.61678 6.72642 24559 ft 496 kts 76°
2026-04-24 21:38 50.62921 6.77621 24080 ft 482 kts 59°
2026-04-24 21:38 50.64896 6.81764 23592 ft 468 kts 43°
2026-04-24 21:38 50.67422 6.84846 23058 ft 453 kts 30°
2026-04-24 21:38 50.69946 6.87736 22526 ft 449 kts 42°
2026-04-24 21:39 50.71766 6.91632 22393 ft 437 kts 62°
2026-04-24 21:39 50.72740 6.96076 22330 ft 422 kts 77°
2026-04-24 21:39 50.73167 7.00574 22267 ft 407 kts 84°
2026-04-24 21:39 50.73371 7.04946 22198 ft 393 kts 86°
2026-04-24 21:40 50.73431 7.09124 22123 ft 380 kts 97°
2026-04-24 21:40 50.72677 7.12963 22073 ft 356 kts 122°
2026-04-24 21:40 50.71264 7.16001 21734 ft 336 kts 134°
2026-04-24 21:40 50.69680 7.18632 21225 ft 327 kts 140°
2026-04-24 21:41 50.68013 7.21028 20731 ft 322 kts 142°
2026-04-24 21:41 50.66325 7.23315 20230 ft 318 kts 143°
2026-04-24 21:41 50.64649 7.25565 19724 ft 315 kts 142°
2026-04-24 21:41 50.62997 7.27813 19248 ft 312 kts 141°
2026-04-24 21:42 50.61376 7.30061 18771 ft 309 kts 141°
2026-04-24 21:42 50.59779 7.32312 18281 ft 307 kts 140°
2026-04-24 21:42 50.58198 7.34561 17735 ft 305 kts 140°
2026-04-24 21:42 50.56631 7.36805 17194 ft 303 kts 139°
2026-04-24 21:43 50.55072 7.39040 16612 ft 303 kts 139°
2026-04-24 21:43 50.53515 7.41270 16036 ft 303 kts 139°
2026-04-24 21:43 50.51959 7.43497 15475 ft 302 kts 139°
2026-04-24 21:43 50.50406 7.45714 14911 ft 301 kts 139°
2026-04-24 21:44 50.48861 7.47918 14314 ft 298 kts 139°
2026-04-24 21:44 50.47336 7.50096 13619 ft 296 kts 137°
2026-04-24 21:44 50.46101 7.52646 12881 ft 294 kts 116°
2026-04-24 21:44 50.45657 7.55718 12163 ft 290 kts 87°
2026-04-24 21:45 50.46221 7.58681 11478 ft 283 kts 60°
2026-04-24 21:45 50.47277 7.61214 10811 ft 279 kts 51°
2026-04-24 21:45 50.48663 7.63288 10145 ft 274 kts 30°
2026-04-24 21:45 50.50437 7.64215 9442 ft 268 kts
2026-04-24 21:46 50.52249 7.63784 8789 ft 263 kts 338°
2026-04-24 21:46 50.53818 7.62334 8224 ft 260 kts 326°
2026-04-24 21:46 50.55224 7.60566 7679 ft 258 kts 320°
2026-04-24 21:46 50.56533 7.58656 7140 ft 255 kts 317°
2026-04-24 21:47 50.57790 7.56719 6655 ft 251 kts 317°
2026-04-24 21:47 50.58607 7.55456 6357 ft 247 kts 317°
2026-04-24 21:47 50.60239 7.52976 5735 ft 241 kts 318°
2026-04-24 21:47 50.61452 7.51193 5285 ft 237 kts 319°
2026-04-24 21:48 50.62666 7.49457 4827 ft 234 kts 319°
2026-04-24 21:48 50.63842 7.47774 4350 ft 221 kts 319°
2026-04-24 21:48 50.64940 7.46205 4026 ft 208 kts 319°
2026-04-24 21:48 50.66003 7.44691 3716 ft 205 kts 319°
2026-04-24 21:49 50.67063 7.43181 3464 ft 205 kts 319°
2026-04-24 21:49 50.68118 7.41674 3205 ft 204 kts 318°
2026-04-24 21:49 50.69153 7.40189 3003 ft 203 kts 318°
2026-04-24 21:49 50.70199 7.38686 2978 ft 203 kts 318°
2026-04-24 21:50 50.71220 7.37217 2968 ft 195 kts 318°
2026-04-24 21:50 50.72216 7.35780 2976 ft 193 kts 318°
2026-04-24 21:50 50.73205 7.34348 2976 ft 192 kts 318°
2026-04-24 21:50 50.74129 7.33010 2973 ft 166 kts 318°
2026-04-24 21:51 50.74927 7.31858 2984 ft 148 kts 318°
2026-04-24 21:51 50.75684 7.30769 2980 ft 147 kts 319°
2026-04-24 21:51 50.76443 7.29678 2820 ft 147 kts 319°
2026-04-24 21:51 50.77200 7.28585 2588 ft 147 kts 319°
2026-04-24 21:52 50.77954 7.27496 2394 ft 147 kts 319°
2026-04-24 21:52 50.78707 7.26409 2191 ft 146 kts 319°
2026-04-24 21:52 50.79455 7.25329 1993 ft 145 kts 320°
2026-04-24 21:52 50.80200 7.24253 1781 ft 145 kts 320°
2026-04-24 21:53 50.80954 7.23188 1556 ft 148 kts 320°
2026-04-24 21:53 50.81720 7.22098 1367 ft 147 kts 319°
2026-04-24 21:53 50.82480 7.21012 1168 ft 147 kts 319°
2026-04-24 21:53 50.83234 7.19914 957 ft 148 kts 317°
2026-04-24 21:54 50.83991 7.18816 736 ft 147 kts 319°
2026-04-24 21:54 50.84748 7.17735 521 ft 145 kts 316°
2026-04-24 21:54 50.85468 7.16660 377 ft 139 kts 317°
2026-04-24 21:54 50.86156 7.15657 292 ft 123 kts 317°
2026-04-24 21:55 50.86631 7.14962 268 ft 57 kts 318°
2026-04-24 21:55 50.86793 7.14717 263 ft 23 kts 308°
2026-04-24 21:55 50.86868 7.14505 262 ft 21 kts 287°
2026-04-24 21:55 50.86891 7.14306 264 ft 17 kts 279°
2026-04-24 21:56 50.86914 7.14103 257 ft 20 kts 279°
2026-04-24 21:56 50.86934 7.13941 251 ft 15 kts 288°
2026-04-24 21:56 50.87000 7.13814 249 ft 15 kts 317°
2026-04-24 21:56 50.87076 7.13704 247 ft 15 kts 317°
2026-04-24 21:57 50.87154 7.13589 245 ft 16 kts 317°
2026-04-24 21:57 50.87235 7.13470 243 ft 16 kts 317°
2026-04-24 21:57 50.87319 7.13347 240 ft 17 kts 317°
2026-04-24 21:57 50.87406 7.13224 238 ft 11 kts 318°
2026-04-24 21:58 50.87426 7.13196 238 ft 6 kts 318°
2026-04-24 21:58 50.87440 7.13166 238 ft 1 kts 281°
2026-04-24 21:58 50.87434 7.13142 238 ft 4 kts 245°
2026-04-24 21:58 50.87419 7.13106 238 ft 4 kts 233°
2026-04-24 21:59 50.87403 7.13079 238 ft 3 kts 227°
2026-04-24 21:59 50.87390 7.13056 238 ft 3 kts 226°
2026-04-24 21:59 50.87382 7.13043 238 ft 0 kts 226°